Time,TemperatureF,DewpointF,PressureIn,WindDirection,WindDirectionDegrees,WindSpeedMPH,WindSpeedGustMPH,Humidity,HourlyPrecipIn,Conditions,Clouds,dailyrainin,SolarRadiationWatts/m^2,SoftwareType,DateUTC
2013-03-23 00:00:00,41.9,33.9,30.07,SW,225,0.0,0.0,73,0.00,CLR,OVC,0.00,0.0,WeatherDisplay:10.37,2013-03-23 04:00:00,
2013-03-23 00:05:00,41.7,33.7,30.06,SW,225,0.0,0.0,73,0.00,CLR,OVC,0.00,0.0,WeatherDisplay:10.37,2013-03-23 04:05:00,
2013-03-23 00:10:00,41.5,33.5,30.07,SW,225,0.0,0.0,73,0.00,CLR,OVC,0.00,0.0,WeatherDisplay:10.37,2013-03-23 04:10:00,
2013-03-23 00:15:00,41.3,33.6,30.07,SW,225,0.0,0.0,74,0.00,CLR,OVC,0.00,0.0,WeatherDisplay:10.37,2013-03-23 04:15:00,
2013-03-23 00:20:00,41.1,33.4,30.07,SW,225,0.0,0.0,74,0.00,CLR,OVC,0.00,0.0,WeatherDisplay:10.37,2013-03-23 04:20:00,
2013-03-23 00:25:00,40.8,33.5,30.07,SW,225,0.0,0.0,75,0.00,CLR,OVC,0.00,0.0,WeatherDisplay:10.37,2013-03-23 04:25:00,
2013-03-23 00:30:00,40.5,33.2,30.07,SW,225,0.0,0.0,75,0.00,CLR,OVC,0.00,0.0,WeatherDisplay:10.37,2013-03-23 04:30:00,
2013-03-23 00:35:00,40.2,33.6,30.07,SW,225,0.0,0.0,77,0.00,CLR,OVC,0.00,0.0,WeatherDisplay:10.37,2013-03-23 04:35:00,
2013-03-23 00:40:00,39.8,33.5,30.07,SW,225,0.0,0.0,78,0.00,CLR,OVC,0.00,0.0,WeatherDisplay:10.37,2013-03-23 04:40:00,
2013-03-23 00:45:00,39.4,33.1,30.07,SW,225,0.0,0.0,78,0.00,CLR,OVC,0.00,0.0,WeatherDisplay:10.37,2013-03-23 04:45:00,
2013-03-23 00:50:00,39.2,33.2,30.07,SW,225,0.0,0.0,79,0.00,CLR,OVC,0.00,0.0,WeatherDisplay:10.37,2013-03-23 04:50:00,
2013-03-23 00:55:00,38.9,32.9,30.07,SW,225,0.0,0.0,79,0.00,CLR,OVC,0.00,0.0,WeatherDisplay:10.37,2013-03-23 04:55:00,
2013-03-23 01:00:00,38.7,32.7,30.07,SW,225,0.0,0.0,79,0.00,CLR,OVC,0.00,0.0,WeatherDisplay:10.37,2013-03-23 05:00:00,
2013-03-23 01:05:00,38.4,32.5,30.07,SW,225,0.0,0.0,79,0.00,CLR,OVC,0.00,0.0,WeatherDisplay:10.37,2013-03-23 05:05:00,
2013-03-23 01:10:00,38.2,32.3,30.07,SW,225,0.0,0.0,79,0.00,CLR,OVC,0.00,0.0,WeatherDisplay:10.37,2013-03-23 05:10:00,
2013-03-23 01:15:00,38.0,32.4,30.07,SW,225,0.0,0.0,80,0.00,CLR,OVC,0.00,0.0,WeatherDisplay:10.37,2013-03-23 05:15:00,
2013-03-23 01:20:00,37.8,32.2,30.07,SW,225,0.0,0.0,80,0.00,CLR,OVC,0.00,0.0,WeatherDisplay:10.37,2013-03-23 05:20:00,
2013-03-23 01:25:00,37.8,32.5,30.06,SW,225,0.0,0.0,81,0.00,CLR,OVC,0.00,0.0,WeatherDisplay:10.37,2013-03-23 05:25:00,
2013-03-23 01:30:00,37.7,32.7,30.06,SW,225,0.0,0.0,82,0.00,CLR,OVC,0.00,0.0,WeatherDisplay:10.37,2013-03-23 05:30:00,
2013-03-23 01:35:00,37.7,32.7,30.07,SW,225,0.0,0.0,82,0.00,CLR,OVC,0.00,0.0,WeatherDisplay:10.37,2013-03-23 05:35:00,
2013-03-23 01:40:00,37.7,32.7,30.07,SW,225,0.0,0.0,82,0.00,CLR,OVC,0.00,0.0,WeatherDisplay:10.37,2013-03-23 05:40:00,
2013-03-23 01:45:00,37.7,32.7,30.07,SW,225,0.0,0.0,82,0.00,CLR,OVC,0.00,0.0,WeatherDisplay:10.37,2013-03-23 05:45:00,
2013-03-23 01:50:00,37.8,32.8,30.07,SW,225,0.0,0.0,82,0.00,CLR,OVC,0.00,0.0,WeatherDisplay:10.37,2013-03-23 05:50:00,
2013-03-23 01:55:00,37.8,32.8,30.07,SW,225,0.0,0.0,82,0.00,CLR,OVC,0.00,0.0,WeatherDisplay:10.37,2013-03-23 05:55:00,
2013-03-23 02:00:00,37.8,32.5,30.07,SW,225,0.0,0.0,81,0.00,CLR,OVC,0.00,0.0,WeatherDisplay:10.37,2013-03-23 06:00:00,
2013-03-23 02:05:00,38.0,33.0,30.07,SW,225,0.0,0.0,82,0.00,CLR,OVC,0.00,0.0,WeatherDisplay:10.37,2013-03-23 06:05:00,
2013-03-23 02:10:00,38.1,33.1,30.07,SW,225,0.1,1.1,82,0.00,CLR,OVC,0.00,0.0,WeatherDisplay:10.37,2013-03-23 06:10:00,
2013-03-23 02:15:00,38.2,32.9,30.07,SW,225,0.0,0.0,81,0.00,CLR,OVC,0.00,0.0,WeatherDisplay:10.37,2013-03-23 06:15:00,
2013-03-23 02:20:00,38.3,33.0,30.08,SW,225,0.0,0.0,81,0.00,CLR,OVC,0.00,0.0,WeatherDisplay:10.37,2013-03-23 06:20:00,
2013-03-23 02:25:00,38.4,33.1,30.08,SW,225,0.0,0.0,81,0.00,CLR,OVC,0.00,0.0,WeatherDisplay:10.37,2013-03-23 06:25:00,
2013-03-23 02:30:00,38.3,32.7,30.08,SW,225,0.0,0.0,80,0.00,CLR,OVC,0.00,0.0,WeatherDisplay:10.37,2013-03-23 06:30:00,
2013-03-23 02:35:00,38.3,32.4,30.07,SW,225,0.0,0.0,79,0.00,CLR,OVC,0.00,0.0,WeatherDisplay:10.37,2013-03-23 06:35:00,
2013-03-23 02:40:00,38.2,32.6,30.07,SW,225,0.0,0.0,80,0.00,CLR,OVC,0.00,0.0,WeatherDisplay:10.37,2013-03-23 06:40:00,
2013-03-23 02:45:00,38.1,32.5,30.07,SW,225,0.0,0.0,80,0.00,CLR,OVC,0.00,0.0,WeatherDisplay:10.37,2013-03-23 06:45:00,
2013-03-23 02:50:00,38.0,32.7,30.07,SW,225,0.0,0.0,81,0.00,CLR,OVC,0.00,0.0,WeatherDisplay:10.37,2013-03-23 06:50:00,
2013-03-23 02:55:00,37.9,32.3,30.07,SW,225,0.0,0.0,80,0.00,CLR,OVC,0.00,0.0,WeatherDisplay:10.37,2013-03-23 06:55:00,
2013-03-23 03:00:00,37.7,32.4,30.07,SW,225,0.0,0.0,81,0.00,CLR,OVC,0.00,0.0,WeatherDisplay:10.37,2013-03-23 07:00:00,
2013-03-23 03:05:00,37.5,32.5,30.07,SW,226,0.0,0.0,82,0.00,CLR,OVC,0.00,0.0,WeatherDisplay:10.37,2013-03-23 07:05:00,
2013-03-23 03:10:00,37.3,32.0,30.06,SW,226,0.0,0.0,81,0.00,CLR,OVC,0.00,0.0,WeatherDisplay:10.37,2013-03-23 07:10:00,
2013-03-23 03:15:00,37.1,31.8,30.06,SW,226,0.0,0.0,81,0.00,CLR,OVC,0.00,0.0,WeatherDisplay:10.37,2013-03-23 07:15:00,
2013-03-23 03:20:00,36.9,31.6,30.06,SW,226,0.0,0.0,81,0.00,CLR,OVC,0.00,0.0,WeatherDisplay:10.37,2013-03-23 07:20:00,
2013-03-23 03:25:00,36.6,31.3,30.05,SW,226,0.0,0.0,81,0.00,CLR,OVC,0.00,0.0,WeatherDisplay:10.37,2013-03-23 07:25:00,
2013-03-23 03:30:00,36.4,31.4,30.05,SW,226,0.0,0.0,82,0.00,CLR,OVC,0.00,0.0,WeatherDisplay:10.37,2013-03-23 07:30:00,
2013-03-23 03:35:00,36.2,31.8,30.05,SW,226,0.0,0.0,84,0.00,CLR,OVC,0.00,0.0,WeatherDisplay:10.37,2013-03-23 07:35:00,
2013-03-23 03:40:00,36.1,31.7,30.04,SW,226,0.0,0.0,84,0.00,CLR,OVC,0.00,0.0,WeatherDisplay:10.37,2013-03-23 07:40:00,
2013-03-23 03:45:00,36.0,31.6,30.04,SW,226,0.0,0.0,84,0.00,CLR,OVC,0.00,0.0,WeatherDisplay:10.37,2013-03-23 07:45:00,
2013-03-23 03:50:00,35.8,31.4,30.04,SW,226,0.0,0.0,84,0.00,CLR,OVC,0.00,0.0,WeatherDisplay:10.37,2013-03-23 07:50:00,
2013-03-23 03:55:00,35.6,31.5,30.04,SW,226,0.0,0.0,85,0.00,CLR,OVC,0.00,0.0,WeatherDisplay:10.37,2013-03-23 07:55:00,
2013-03-23 04:00:00,35.5,31.4,30.04,SW,226,0.0,0.0,85,0.00,CLR,OVC,0.00,0.0,WeatherDisplay:10.37,2013-03-23 08:00:00,
2013-03-23 04:05:00,35.3,31.2,30.04,SW,226,0.0,0.0,85,0.00,CLR,OVC,0.00,0.0,WeatherDisplay:10.37,2013-03-23 08:05:00,
2013-03-23 04:11:00,35.1,31.0,30.04,SW,226,0.0,0.0,85,0.00,CLR,OVC,0.00,0.0,WeatherDisplay:10.37,2013-03-23 08:11:00,
2013-03-23 04:16:00,35.0,31.2,30.04,SW,226,0.0,0.0,86,0.00,CLR,OVC,0.00,0.0,WeatherDisplay:10.37,2013-03-23 08:16:00,
2013-03-23 04:21:00,34.8,31.0,30.04,SW,226,0.0,0.0,86,0.00,CLR,OVC,0.00,0.0,WeatherDisplay:10.37,2013-03-23 08:21:00,
2013-03-23 04:26:00,34.7,30.9,30.04,SW,226,0.0,0.0,86,0.00,CLR,OVC,0.00,0.0,WeatherDisplay:10.37,2013-03-23 08:26:00,
2013-03-23 04:31:00,34.5,30.7,30.04,SW,226,0.0,0.0,86,0.00,CLR,OVC,0.00,0.0,WeatherDisplay:10.37,2013-03-23 08:31:00,
2013-03-23 04:36:00,34.4,30.6,30.03,SW,226,0.0,0.0,86,0.00,CLR,OVC,0.00,0.0,WeatherDisplay:10.37,2013-03-23 08:36:00,
2013-03-23 04:41:00,34.4,30.9,30.04,SW,226,0.0,0.0,87,0.00,CLR,OVC,0.00,0.0,WeatherDisplay:10.37,2013-03-23 08:41:00,
2013-03-23 04:46:00,34.4,31.2,30.04,SW,226,0.0,0.0,88,0.00,CLR,OVC,0.00,0.0,WeatherDisplay:10.37,2013-03-23 08:46:00,
2013-03-23 04:51:00,34.3,31.1,30.04,SW,226,0.0,0.0,88,0.00,CLR,OVC,0.00,0.0,WeatherDisplay:10.37,2013-03-23 08:51:00,
2013-03-23 04:56:00,34.2,30.7,30.04,SW,226,0.0,0.0,87,0.00,CLR,OVC,0.00,0.0,WeatherDisplay:10.37,2013-03-23 08:56:00,
2013-03-23 05:01:00,34.1,30.6,30.04,SW,226,0.0,0.0,87,0.00,CLR,OVC,0.00,0.0,WeatherDisplay:10.37,2013-03-23 09:01:00,
2013-03-23 05:06:00,33.9,30.4,30.04,SW,226,0.0,0.0,87,0.00,CLR,OVC,0.00,0.0,WeatherDisplay:10.37,2013-03-23 09:06:00,
2013-03-23 05:11:00,33.7,30.5,30.05,SW,226,0.0,0.0,88,0.00,CLR,OVC,0.00,0.0,WeatherDisplay:10.37,2013-03-23 09:11:00,
2013-03-23 05:16:00,33.7,30.8,30.05,SW,226,0.0,0.0,89,0.00,CLR,OVC,0.00,0.0,WeatherDisplay:10.37,2013-03-23 09:16:00,
2013-03-23 05:21:00,33.7,30.5,30.05,SW,226,0.0,0.0,88,0.00,CLR,OVC,0.00,0.0,WeatherDisplay:10.37,2013-03-23 09:21:00,
2013-03-23 05:26:00,33.6,30.4,30.05,SW,226,0.0,0.0,88,0.00,CLR,OVC,0.00,0.0,WeatherDisplay:10.37,2013-03-23 09:26:00,
2013-03-23 05:32:00,33.4,30.5,30.04,SW,226,0.0,0.0,89,0.00,CLR,OVC,0.00,0.0,WeatherDisplay:10.37,2013-03-23 09:32:00,
2013-03-23 05:37:00,33.4,30.5,30.04,SW,226,0.0,0.0,89,0.00,CLR,OVC,0.00,0.0,WeatherDisplay:10.37,2013-03-23 09:37:00,
2013-03-23 05:42:00,33.2,30.3,30.04,SW,226,0.0,0.0,89,0.00,CLR,OVC,0.00,0.0,WeatherDisplay:10.37,2013-03-23 09:42:00,
2013-03-23 05:47:00,33.1,30.2,30.04,SW,226,0.0,0.0,89,0.00,CLR,OVC,0.00,0.0,WeatherDisplay:10.37,2013-03-23 09:47:00,
2013-03-23 05:52:00,33.0,30.1,30.04,SW,226,0.0,0.0,89,0.00,CLR,OVC,0.00,0.0,WeatherDisplay:10.37,2013-03-23 09:52:00,
2013-03-23 05:57:00,32.9,30.0,30.05,SW,226,0.0,0.0,89,0.00,CLR,OVC,0.00,0.0,WeatherDisplay:10.37,2013-03-23 09:57:00,
2013-03-23 06:02:00,33.0,30.4,30.05,SW,226,0.0,0.0,90,0.00,CLR,OVC,0.00,0.0,WeatherDisplay:10.37,2013-03-23 10:02:00,
2013-03-23 06:07:00,33.0,30.4,30.05,SW,226,0.0,0.0,90,0.00,CLR,OVC,0.00,0.0,WeatherDisplay:10.37,2013-03-23 10:07:00,
2013-03-23 06:12:00,32.9,30.3,30.05,SW,226,0.0,0.0,90,0.00,CLR,OVC,0.00,0.0,WeatherDisplay:10.37,2013-03-23 10:12:00,
2013-03-23 06:17:00,32.8,30.2,30.05,SW,226,0.0,0.0,90,0.00,CLR,OVC,0.00,0.0,WeatherDisplay:10.37,2013-03-23 10:17:00,
2013-03-23 06:22:00,32.8,30.2,30.06,SW,226,0.0,0.0,90,0.00,CLR,OVC,0.00,0.0,WeatherDisplay:10.37,2013-03-23 10:22:00,
2013-03-23 06:27:00,32.8,30.5,30.05,SW,226,0.0,0.0,91,0.00,CLR,OVC,0.00,0.0,WeatherDisplay:10.37,2013-03-23 10:27:00,
2013-03-23 06:32:00,32.8,30.5,30.05,SW,226,0.0,0.0,91,0.00,CLR,OVC,0.00,0.0,WeatherDisplay:10.37,2013-03-23 10:32:00,
2013-03-23 06:37:00,33.0,30.9,30.04,SW,226,0.0,1.1,92,0.00,CLR,OVC,0.00,0.0,WeatherDisplay:10.37,2013-03-23 10:37:00,
2013-03-23 06:42:00,33.2,31.1,30.05,SW,226,0.0,0.0,92,0.00,CLR,OVC,0.00,0.0,WeatherDisplay:10.37,2013-03-23 10:42:00,
2013-03-23 06:47:00,33.2,31.1,30.04,SW,226,0.0,0.0,92,0.00,CLR,OVC,0.00,0.0,WeatherDisplay:10.37,2013-03-23 10:47:00,
2013-03-23 06:52:00,33.2,30.9,30.05,SW,226,0.0,0.0,91,0.00,CLR,OVC,0.00,0.0,WeatherDisplay:10.37,2013-03-23 10:52:00,
2013-03-23 06:57:00,33.1,30.8,30.05,SW,226,0.0,0.0,91,0.00,CLR,OVC,0.00,0.0,WeatherDisplay:10.37,2013-03-23 10:57:00,
2013-03-23 07:02:00,33.0,30.7,30.05,SW,226,0.0,0.0,91,0.00,CLR,OVC,0.00,0.0,WeatherDisplay:10.37,2013-03-23 11:02:00,
2013-03-23 07:07:00,32.8,30.5,30.04,SW,226,0.0,0.0,91,0.00,OVC,,0.00,0.0,WeatherDisplay:10.37,2013-03-23 11:07:00,
2013-03-23 07:12:00,32.7,30.4,30.04,SW,226,0.0,0.0,91,0.00,OVC,,0.00,0.0,WeatherDisplay:10.37,2013-03-23 11:12:00,
2013-03-23 07:17:00,32.7,30.6,30.04,SW,226,0.0,0.0,92,0.00,OVC,,0.00,0.0,WeatherDisplay:10.37,2013-03-23 11:17:00,
2013-03-23 07:22:00,32.6,30.5,30.05,SW,226,0.0,0.0,92,0.00,OVC,,0.00,0.0,WeatherDisplay:10.37,2013-03-23 11:22:00,
2013-03-23 07:27:00,32.6,30.5,30.05,SW,226,0.0,0.0,92,0.00,OVC,,0.00,0.0,WeatherDisplay:10.37,2013-03-23 11:27:00,
2013-03-23 07:32:00,32.6,30.5,30.04,SW,226,0.0,0.0,92,0.00,OVC,,0.00,0.0,WeatherDisplay:10.37,2013-03-23 11:32:00,
2013-03-23 07:37:00,32.8,30.7,30.03,SW,226,0.0,0.0,92,0.00,OVC,,0.00,0.0,WeatherDisplay:10.37,2013-03-23 11:37:00,
2013-03-23 07:42:00,33.2,31.4,30.04,SW,226,0.0,0.0,93,0.00,OVC,,0.00,0.0,WeatherDisplay:10.37,2013-03-23 11:42:00,
2013-03-23 07:47:00,33.7,32.2,30.04,SW,226,0.0,0.0,94,0.00,OVC,,0.00,0.0,WeatherDisplay:10.37,2013-03-23 11:47:00,
2013-03-23 07:52:00,34.5,33.0,30.04,SW,226,0.0,0.0,94,0.00,OVC,,0.00,0.0,WeatherDisplay:10.37,2013-03-23 11:52:00,
2013-03-23 07:57:00,35.5,34.2,30.05,SW,226,0.0,0.0,95,0.00,OVC,,0.00,0.0,WeatherDisplay:10.37,2013-03-23 11:57:00,
2013-03-23 08:02:00,36.5,35.2,30.05,SW,226,0.0,0.0,95,0.00,OVC,,0.00,0.0,WeatherDisplay:10.37,2013-03-23 12:02:00,
2013-03-23 08:07:00,37.5,36.2,30.05,SW,226,0.1,1.1,95,0.00,OVC,,0.00,0.0,WeatherDisplay:10.37,2013-03-23 12:07:00,
2013-03-23 08:13:00,38.6,36.8,30.05,SW,226,0.0,0.0,93,0.00,OVC,,0.00,0.0,WeatherDisplay:10.37,2013-03-23 12:13:00,
2013-03-23 08:18:00,39.6,36.9,30.06,SW,226,0.2,1.1,90,0.00,OVC,,0.00,0.0,WeatherDisplay:10.37,2013-03-23 12:18:00,
2013-03-23 08:23:00,40.6,36.7,30.05,SW,226,0.0,0.0,86,0.00,OVC,,0.00,0.0,WeatherDisplay:10.37,2013-03-23 12:23:00,
2013-03-23 08:28:00,41.7,36.9,30.05,SW,226,0.0,0.0,83,0.00,OVC,,0.00,0.0,WeatherDisplay:10.37,2013-03-23 12:28:00,
2013-03-23 08:33:00,43.1,37.0,30.05,SW,226,0.0,1.1,79,0.00,OVC,,0.00,0.0,WeatherDisplay:10.37,2013-03-23 12:33:00,
2013-03-23 08:38:00,44.3,37.5,30.05,SW,226,0.0,0.0,77,0.00,OVC,,0.00,0.0,WeatherDisplay:10.37,2013-03-23 12:38:00,
2013-03-23 08:43:00,45.4,37.6,30.05,SW,226,0.0,0.0,74,0.00,OVC,,0.00,0.0,WeatherDisplay:10.37,2013-03-23 12:43:00,
2013-03-23 08:48:00,46.4,37.1,30.05,SW,226,0.0,0.0,70,0.00,OVC,,0.00,0.0,WeatherDisplay:10.37,2013-03-23 12:48:00,
2013-03-23 08:53:00,47.7,37.3,30.05,SW,226,0.0,0.0,67,0.00,OVC,,0.00,0.0,WeatherDisplay:10.37,2013-03-23 12:53:00,
2013-03-23 08:58:00,48.8,37.2,30.05,WSW,244,0.0,0.0,64,0.00,OVC,,0.00,0.0,WeatherDisplay:10.37,2013-03-23 12:58:00,
2013-03-23 09:03:00,49.6,36.3,30.05,WSW,238,0.0,0.0,60,0.00,OVC,,0.00,0.0,WeatherDisplay:10.37,2013-03-23 13:03:00,
2013-03-23 09:08:00,50.5,36.3,30.05,WSW,250,0.0,2.3,58,0.00,OVC,,0.00,0.0,WeatherDisplay:10.37,2013-03-23 13:08:00,
2013-03-23 09:13:00,50.8,34.7,30.04,WNW,286,0.4,3.5,54,0.00,OVC,,0.00,0.0,WeatherDisplay:10.37,2013-03-23 13:13:00,
2013-03-23 09:18:00,50.8,34.7,30.05,West,279,0.0,0.0,54,0.00,OVC,,0.00,0.0,WeatherDisplay:10.37,2013-03-23 13:18:00,
2013-03-23 09:23:00,50.8,35.2,30.05,WNW,287,0.0,0.0,55,0.00,OVC,,0.00,0.0,WeatherDisplay:10.37,2013-03-23 13:23:00,
2013-03-23 09:28:00,51.0,34.9,30.05,NW,323,0.0,1.1,54,0.00,OVC,,0.00,0.0,WeatherDisplay:10.37,2013-03-23 13:28:00,
2013-03-23 09:33:00,51.4,35.8,30.05,WNW,294,0.1,0.0,55,0.00,OVC,,0.00,0.0,WeatherDisplay:10.37,2013-03-23 13:33:00,
2013-03-23 09:38:00,52.1,35.5,30.05,West,266,0.0,2.3,53,0.00,OVC,,0.00,0.0,WeatherDisplay:10.37,2013-03-23 13:38:00,
2013-03-23 09:43:00,52.9,35.2,30.05,NW,325,1.4,3.0,51,0.00,OVC,,0.00,0.0,WeatherDisplay:10.37,2013-03-23 13:43:00,
2013-03-23 09:48:00,53.2,35.0,30.05,NNW,331,0.0,0.0,50,0.00,OVC,,0.00,0.0,WeatherDisplay:10.37,2013-03-23 13:48:00,
2013-03-23 09:53:00,53.5,34.3,30.05,WSW,246,0.0,0.0,48,0.00,OVC,,0.00,0.0,WeatherDisplay:10.37,2013-03-23 13:53:00,
2013-03-23 09:58:00,53.6,33.8,30.05,WNW,294,0.0,0.0,47,0.00,OVC,,0.00,0.0,WeatherDisplay:10.37,2013-03-23 13:58:00,
2013-03-23 10:03:00,53.7,33.4,30.05,North,11,0.0,1.1,46,0.00,OVC,,0.00,0.0,WeatherDisplay:10.37,2013-03-23 14:03:00,
2013-03-23 10:08:00,53.6,33.8,30.05,WNW,298,0.0,0.0,47,0.00,OVC,,0.00,0.0,WeatherDisplay:10.37,2013-03-23 14:08:00,
2013-03-23 10:13:00,53.9,34.1,30.05,North,355,0.7,3.5,47,0.00,OVC,,0.00,0.0,WeatherDisplay:10.37,2013-03-23 14:13:00,
2013-03-23 10:18:00,54.4,34.0,30.05,WNW,292,0.0,1.1,46,0.00,OVC,,0.00,0.0,WeatherDisplay:10.37,2013-03-23 14:18:00,
2013-03-23 10:23:00,54.7,33.8,30.05,WSW,246,0.1,1.1,45,0.00,OVC,,0.00,0.0,WeatherDisplay:10.37,2013-03-23 14:23:00,
2013-03-23 10:28:00,55.0,34.0,30.05,West,267,2.9,5.8,45,0.00,OVC,,0.00,0.0,WeatherDisplay:10.37,2013-03-23 14:28:00,
2013-03-23 10:33:00,55.1,33.0,30.05,North,350,0.7,2.3,43,0.00,OVC,,0.00,0.0,WeatherDisplay:10.37,2013-03-23 14:33:00,
2013-03-23 10:38:00,55.0,32.9,30.05,North,355,0.0,1.1,43,0.00,OVC,,0.00,0.0,WeatherDisplay:10.37,2013-03-23 14:38:00,
2013-03-23 10:43:00,54.6,33.7,30.05,NW,311,2.0,4.6,45,0.00,OVC,,0.00,0.0,WeatherDisplay:10.37,2013-03-23 14:43:00,
2013-03-23 10:49:00,54.2,34.9,30.05,NNW,340,0.0,0.0,48,0.00,OVC,,0.00,0.0,WeatherDisplay:10.37,2013-03-23 14:49:00,
2013-03-23 10:54:00,53.9,32.5,30.05,NW,319,1.4,4.6,44,0.00,OVC,,0.00,0.0,WeatherDisplay:10.37,2013-03-23 14:54:00,
2013-03-23 10:59:00,53.5,32.7,30.05,North,5,0.1,1.1,45,0.00,OVC,,0.00,0.0,WeatherDisplay:10.37,2013-03-23 14:59:00,
2013-03-23 11:04:00,53.1,33.9,30.05,NNW,329,0.0,1.1,48,0.00,OVC,,0.00,0.0,WeatherDisplay:10.37,2013-03-23 15:04:00,
2013-03-23 11:09:00,53.0,33.8,30.06,NW,309,0.7,2.3,48,0.00,OVC,,0.00,0.0,WeatherDisplay:10.37,2013-03-23 15:09:00,
2013-03-23 11:14:00,52.7,33.0,30.06,WNW,285,1.5,3.5,47,0.00,OVC,,0.00,0.0,WeatherDisplay:10.37,2013-03-23 15:14:00,
2013-03-23 11:19:00,52.3,33.7,30.06,West,277,0.0,2.3,49,0.00,OVC,,0.00,0.0,WeatherDisplay:10.37,2013-03-23 15:19:00,
2013-03-23 11:24:00,52.1,35.5,30.06,West,281,0.0,0.0,53,0.00,OVC,,0.00,0.0,WeatherDisplay:10.37,2013-03-23 15:24:00,
2013-03-23 11:29:00,51.7,35.6,30.06,NW,314,0.0,0.0,54,0.00,OVC,,0.00,0.0,WeatherDisplay:10.37,2013-03-23 15:29:00,
2013-03-23 11:34:00,51.4,37.1,30.06,NNW,340,0.0,0.0,58,0.00,OVC,,0.00,0.0,WeatherDisplay:10.37,2013-03-23 15:34:00,
2013-03-23 11:39:00,51.0,37.6,30.06,NW,306,0.0,0.0,60,0.00,OVC,,0.00,0.0,WeatherDisplay:10.37,2013-03-23 15:39:00,
2013-03-23 11:44:00,50.6,38.1,30.07,NW,306,0.0,0.0,62,0.00,OVC,,0.00,0.0,WeatherDisplay:10.37,2013-03-23 15:44:00,
2013-03-23 11:49:00,50.3,39.0,30.07,WNW,300,0.0,0.0,65,0.00,OVC,,0.00,0.0,WeatherDisplay:10.37,2013-03-23 15:49:00,
2013-03-23 11:54:00,50.0,40.2,30.06,WNW,300,0.0,0.0,69,0.01,RA,OVC,0.01,0.0,WeatherDisplay:10.37,2013-03-23 15:54:00,
2013-03-23 11:59:00,49.6,40.2,30.06,WNW,300,0.0,0.0,70,0.01,RA,OVC,0.01,0.0,WeatherDisplay:10.37,2013-03-23 15:59:00,
2013-03-23 12:04:00,49.4,41.1,30.07,WNW,300,0.0,0.0,73,0.01,OVC,,0.01,0.0,WeatherDisplay:10.37,2013-03-23 16:04:00,
2013-03-23 12:09:00,49.1,41.9,30.07,WNW,298,0.0,0.0,76,0.01,OVC,,0.01,0.0,WeatherDisplay:10.37,2013-03-23 16:09:00,
2013-03-23 12:14:00,48.7,41.5,30.07,NW,304,0.0,1.1,76,0.01,OVC,,0.01,0.0,WeatherDisplay:10.37,2013-03-23 16:14:00,
2013-03-23 12:19:00,48.2,42.0,30.07,NW,315,0.0,1.1,79,0.02,RA,OVC,0.02,0.0,WeatherDisplay:10.37,2013-03-23 16:19:00,
2013-03-23 12:25:00,48.0,41.5,30.07,NW,324,0.1,1.1,78,0.02,RA,OVC,0.02,0.0,WeatherDisplay:10.37,2013-03-23 16:25:00,
2013-03-23 12:30:00,47.8,40.9,30.06,West,276,0.0,0.0,77,0.02,OVC,,0.02,0.0,WeatherDisplay:10.37,2013-03-23 16:30:00,
2013-03-23 12:35:00,47.8,41.3,30.06,NW,309,0.0,0.0,78,0.02,OVC,,0.02,0.0,WeatherDisplay:10.37,2013-03-23 16:35:00,
2013-03-23 12:40:00,47.8,41.9,30.07,NNW,334,0.0,0.0,80,0.02,OVC,,0.02,0.0,WeatherDisplay:10.37,2013-03-23 16:40:00,
2013-03-23 12:45:00,47.8,40.9,30.06,NW,313,0.2,2.3,77,0.02,OVC,,0.02,0.0,WeatherDisplay:10.37,2013-03-23 16:45:00,
2013-03-23 12:50:00,47.6,40.7,30.06,NNW,344,0.0,0.0,77,0.02,OVC,,0.02,0.0,WeatherDisplay:10.37,2013-03-23 16:50:00,
2013-03-23 12:55:00,47.5,41.0,30.06,NW,312,0.0,0.0,78,0.01,OVC,,0.02,0.0,WeatherDisplay:10.37,2013-03-23 16:55:00,
2013-03-23 13:00:00,47.7,41.8,30.05,WNW,289,0.0,1.1,80,0.01,OVC,,0.02,0.0,WeatherDisplay:10.37,2013-03-23 17:00:00,
2013-03-23 13:05:00,47.7,40.8,30.06,North,5,0.6,3.5,77,0.02,RA,OVC,0.03,0.0,WeatherDisplay:10.37,2013-03-23 17:05:00,
2013-03-23 13:10:00,47.5,41.0,30.06,NNW,341,0.0,0.0,78,0.02,RA,OVC,0.03,0.0,WeatherDisplay:10.37,2013-03-23 17:10:00,
2013-03-23 13:15:00,47.4,40.6,30.05,NW,325,0.3,4.6,77,0.02,OVC,,0.03,0.0,WeatherDisplay:10.37,2013-03-23 17:15:00,
2013-03-23 13:20:00,47.4,40.6,30.04,NNE,16,0.0,0.0,77,0.01,OVC,,0.03,0.0,WeatherDisplay:10.37,2013-03-23 17:20:00,
2013-03-23 13:25:00,47.4,39.5,30.04,NW,307,0.0,0.0,74,0.01,OVC,,0.03,0.0,WeatherDisplay:10.37,2013-03-23 17:25:00,
2013-03-23 13:30:00,47.7,40.2,30.05,WNW,297,0.0,1.0,75,0.01,OVC,,0.03,0.0,WeatherDisplay:10.37,2013-03-23 17:30:00,
2013-03-23 13:35:00,47.9,40.0,30.05,NNW,330,0.5,3.5,74,0.01,OVC,,0.03,0.0,WeatherDisplay:10.37,2013-03-23 17:35:00,
2013-03-23 13:40:00,48.1,39.5,30.05,NW,324,0.0,1.1,72,0.01,OVC,,0.03,0.0,WeatherDisplay:10.37,2013-03-23 17:40:00,
2013-03-23 13:45:00,48.2,39.9,30.05,West,277,0.0,0.0,73,0.01,OVC,,0.03,0.0,WeatherDisplay:10.37,2013-03-23 17:45:00,
2013-03-23 13:50:00,48.3,40.0,30.05,West,276,0.0,0.0,73,0.01,OVC,,0.03,0.0,WeatherDisplay:10.37,2013-03-23 17:50:00,
2013-03-23 13:55:00,48.4,39.8,30.05,West,274,0.0,0.0,72,0.01,OVC,,0.03,0.0,WeatherDisplay:10.37,2013-03-23 17:55:00,
2013-03-23 14:00:00,48.6,40.0,30.05,WSW,249,0.0,1.1,72,0.01,OVC,,0.03,0.0,WeatherDisplay:10.37,2013-03-23 18:00:00,
2013-03-23 14:05:00,48.7,40.1,30.05,West,259,0.0,0.0,72,0.00,OVC,,0.03,0.0,WeatherDisplay:10.37,2013-03-23 18:05:00,
2013-03-23 14:10:00,48.8,39.8,30.05,WNW,296,0.0,0.0,71,0.00,OVC,,0.03,0.0,WeatherDisplay:10.37,2013-03-23 18:10:00,
2013-03-23 14:15:00,48.9,38.8,30.04,WSW,257,0.0,0.0,68,0.00,OVC,,0.03,0.0,WeatherDisplay:10.37,2013-03-23 18:15:00,
2013-03-23 14:20:00,49.0,38.9,30.04,West,259,0.0,1.1,68,0.00,OVC,,0.03,0.0,WeatherDisplay:10.37,2013-03-23 18:20:00,
2013-03-23 14:25:00,49.0,38.5,30.04,West,281,0.0,0.0,67,0.00,OVC,,0.03,0.0,WeatherDisplay:10.37,2013-03-23 18:25:00,
2013-03-23 14:30:00,49.1,39.7,30.04,WNW,283,0.0,0.0,70,0.00,OVC,,0.03,0.0,WeatherDisplay:10.37,2013-03-23 18:30:00,
2013-03-23 14:35:00,49.4,40.4,30.04,WNW,282,0.0,0.0,71,0.00,OVC,,0.03,0.0,WeatherDisplay:10.37,2013-03-23 18:35:00,
2013-03-23 14:40:00,49.4,38.9,30.02,West,273,0.0,0.0,67,0.00,OVC,,0.03,0.0,WeatherDisplay:10.37,2013-03-23 18:40:00,
2013-03-23 14:45:00,49.4,38.9,30.01,West,273,0.0,0.0,67,0.00,OVC,,0.03,0.0,WeatherDisplay:10.37,2013-03-23 18:45:00,
2013-03-23 14:50:00,49.4,38.9,30.02,West,273,0.0,0.0,67,0.00,OVC,,0.03,0.0,WeatherDisplay:10.37,2013-03-23 18:50:00,
2013-03-23 14:55:00,49.2,38.7,30.01,West,272,0.0,0.0,67,0.00,OVC,,0.03,0.0,WeatherDisplay:10.37,2013-03-23 18:55:00,
2013-03-23 15:00:00,49.2,38.7,30.01,West,275,0.0,0.0,67,0.00,OVC,,0.03,0.0,WeatherDisplay:10.37,2013-03-23 19:00:00,
2013-03-23 15:05:00,49.2,39.5,30.01,WNW,290,0.0,0.0,69,0.00,OVC,,0.03,0.0,WeatherDisplay:10.37,2013-03-23 19:05:00,
2013-03-23 15:10:00,49.3,39.6,30.01,WNW,290,0.0,0.0,69,0.00,OVC,,0.03,0.0,WeatherDisplay:10.37,2013-03-23 19:10:00,
2013-03-23 15:15:00,49.4,39.3,30.01,WNW,294,0.0,0.0,68,0.00,OVC,,0.03,0.0,WeatherDisplay:10.37,2013-03-23 19:15:00,
2013-03-23 15:20:00,49.6,39.1,30.00,WNW,293,0.0,0.0,67,0.00,OVC,,0.03,0.0,WeatherDisplay:10.37,2013-03-23 19:20:00,
2013-03-23 15:25:00,50.0,39.5,30.00,NW,325,1.8,2.0,67,0.00,OVC,,0.03,0.0,WeatherDisplay:10.37,2013-03-23 19:25:00,
2013-03-23 15:30:00,50.4,39.1,30.00,NNW,329,1.8,3.5,65,0.00,OVC,,0.03,0.0,WeatherDisplay:10.37,2013-03-23 19:30:00,
2013-03-23 15:35:00,50.6,39.3,29.99,NNW,331,0.0,0.0,65,0.00,OVC,,0.03,0.0,WeatherDisplay:10.37,2013-03-23 19:35:00,
2013-03-23 15:40:00,51.0,39.2,29.98,NNW,331,0.0,0.0,64,0.00,OVC,,0.03,0.0,WeatherDisplay:10.37,2013-03-23 19:40:00,
2013-03-23 15:45:00,51.4,38.8,29.98,SE,134,1.5,3.0,62,0.00,OVC,,0.03,0.0,WeatherDisplay:10.37,2013-03-23 19:45:00,
2013-03-23 15:50:00,51.7,39.5,29.97,SE,135,0.9,2.3,63,0.00,OVC,,0.03,0.0,WeatherDisplay:10.37,2013-03-23 19:50:00,
2013-03-23 15:55:00,52.0,40.2,29.96,ESE,105,1.0,2.3,64,0.00,OVC,,0.03,0.0,WeatherDisplay:10.37,2013-03-23 19:55:00,
2013-03-23 16:00:00,52.5,39.4,29.96,ESE,111,0.5,2.3,61,0.00,OVC,,0.03,0.0,WeatherDisplay:10.37,2013-03-23 20:00:00,
2013-03-23 16:05:00,53.1,39.6,29.96,SSE,156,2.1,3.5,60,0.00,OVC,,0.03,0.0,WeatherDisplay:10.37,2013-03-23 20:05:00,
2013-03-23 16:10:00,53.7,39.3,29.96,SSW,194,0.6,2.3,58,0.00,OVC,,0.03,0.0,WeatherDisplay:10.37,2013-03-23 20:10:00,
2013-03-23 16:15:00,54.5,39.6,29.96,West,265,1.6,3.5,57,0.00,OVC,,0.03,0.0,WeatherDisplay:10.37,2013-03-23 20:15:00,
2013-03-23 16:20:00,54.9,39.5,29.96,West,281,1.5,3.5,56,0.00,OVC,,0.03,0.0,WeatherDisplay:10.37,2013-03-23 20:20:00,
2013-03-23 16:25:00,55.5,40.5,29.96,West,273,0.1,2.3,57,0.00,OVC,,0.03,0.0,WeatherDisplay:10.37,2013-03-23 20:25:00,
2013-03-23 16:30:00,56.3,40.8,29.95,West,259,1.0,2.3,56,0.00,OVC,,0.03,0.0,WeatherDisplay:10.37,2013-03-23 20:30:00,
2013-03-23 16:35:00,57.0,41.0,29.95,WSW,252,1.3,2.3,55,0.00,OVC,,0.03,0.0,WeatherDisplay:10.37,2013-03-23 20:35:00,
2013-03-23 16:40:00,57.3,41.3,29.94,NE,54,1.0,3.5,55,0.00,OVC,,0.03,0.0,WeatherDisplay:10.37,2013-03-23 20:40:00,
2013-03-23 16:45:00,57.2,41.2,29.94,North,350,1.2,3.5,55,0.00,OVC,,0.03,0.0,WeatherDisplay:10.37,2013-03-23 20:45:00,
2013-03-23 16:50:00,57.6,41.5,29.94,North,5,1.7,4.6,55,0.00,OVC,,0.03,0.0,WeatherDisplay:10.37,2013-03-23 20:50:00,
2013-03-23 16:55:00,57.8,41.3,29.94,NNE,28,2.0,4.6,54,0.00,OVC,,0.03,0.0,WeatherDisplay:10.37,2013-03-23 20:55:00,
2013-03-23 17:01:00,57.9,41.3,29.94,East,101,0.7,1.1,54,0.00,OVC,,0.03,0.0,WeatherDisplay:10.37,2013-03-23 21:01:00,
2013-03-23 17:06:00,57.8,41.3,29.94,NE,54,0.4,3.0,54,0.00,OVC,,0.03,0.0,WeatherDisplay:10.37,2013-03-23 21:06:00,
2013-03-23 17:11:00,57.9,41.8,29.94,North,355,2.5,3.5,55,0.00,OVC,,0.03,0.0,WeatherDisplay:10.37,2013-03-23 21:11:00,
2013-03-23 17:16:00,57.8,41.7,29.94,NNE,17,1.4,3.5,55,0.00,OVC,,0.03,0.0,WeatherDisplay:10.37,2013-03-23 21:16:00,
2013-03-23 17:21:00,57.9,41.8,29.94,WNW,303,4.8,5.8,55,0.00,OVC,,0.03,0.0,WeatherDisplay:10.37,2013-03-23 21:21:00,
2013-03-23 17:26:00,57.8,41.3,29.94,ENE,61,0.1,3.5,54,0.00,OVC,,0.03,0.0,WeatherDisplay:10.37,2013-03-23 21:26:00,
2013-03-23 17:31:00,57.4,41.4,29.94,NE,34,0.5,2.3,55,0.00,OVC,,0.03,0.0,WeatherDisplay:10.37,2013-03-23 21:31:00,
2013-03-23 17:36:00,57.4,41.8,29.93,North,350,2.4,3.5,56,0.00,OVC,,0.03,0.0,WeatherDisplay:10.37,2013-03-23 21:36:00,
2013-03-23 17:42:00,57.9,42.3,29.93,North,350,2.0,2.3,56,0.00,OVC,,0.03,0.0,WeatherDisplay:10.37,2013-03-23 21:42:00,
2013-03-23 17:47:00,58.0,41.9,29.93,NE,38,3.1,4.6,55,0.00,OVC,,0.03,0.0,WeatherDisplay:10.37,2013-03-23 21:47:00,
2013-03-23 17:52:00,57.1,41.5,29.92,ENE,63,0.7,3.5,56,0.00,OVC,,0.03,0.0,WeatherDisplay:10.37,2013-03-23 21:52:00,
2013-03-23 17:57:00,57.0,41.9,29.93,East,80,1.9,2.3,57,0.00,OVC,,0.03,0.0,WeatherDisplay:10.37,2013-03-23 21:57:00,
2013-03-23 18:02:00,56.7,41.6,29.93,SE,132,0.5,1.1,57,0.00,OVC,,0.03,0.0,WeatherDisplay:10.37,2013-03-23 22:02:00,
2013-03-23 18:07:00,55.9,41.3,29.93,ESE,119,2.3,4.0,58,0.00,OVC,,0.03,0.0,WeatherDisplay:10.37,2013-03-23 22:07:00,
2013-03-23 18:12:00,55.1,41.0,29.93,East,98,2.3,5.0,59,0.00,OVC,,0.03,0.0,WeatherDisplay:10.37,2013-03-23 22:12:00,
2013-03-23 18:17:00,54.2,40.6,29.93,ESE,114,0.3,3.5,60,0.00,OVC,,0.03,0.0,WeatherDisplay:10.37,2013-03-23 22:17:00,
2013-03-23 18:22:00,53.5,40.8,29.93,SE,135,3.0,4.6,62,0.00,OVC,,0.03,0.0,WeatherDisplay:10.37,2013-03-23 22:22:00,
2013-03-23 18:27:00,52.9,40.6,29.93,ESE,107,1.3,3.5,63,0.00,OVC,,0.03,0.0,WeatherDisplay:10.37,2013-03-23 22:27:00,
2013-03-23 18:32:00,52.4,41.0,29.93,ESE,115,1.4,2.3,65,0.00,OVC,,0.03,0.0,WeatherDisplay:10.37,2013-03-23 22:32:00,
2013-03-23 18:37:00,52.1,40.7,29.93,East,97,1.2,2.3,65,0.00,OVC,,0.03,0.0,WeatherDisplay:10.37,2013-03-23 22:37:00,
2013-03-23 18:42:00,51.9,40.9,29.94,East,92,1.9,4.6,66,0.00,OVC,,0.03,0.0,WeatherDisplay:10.37,2013-03-23 22:42:00,
2013-03-23 18:47:00,51.7,41.1,29.94,SSE,160,2.7,3.5,67,0.00,OVC,,0.03,0.0,WeatherDisplay:10.37,2013-03-23 22:47:00,
2013-03-23 18:52:00,51.5,41.3,29.94,ESE,120,1.0,2.3,68,0.00,OVC,,0.03,0.0,WeatherDisplay:10.37,2013-03-23 22:52:00,
2013-03-23 18:57:00,51.2,41.0,29.93,ESE,120,1.4,2.3,68,0.00,OVC,,0.03,0.0,WeatherDisplay:10.37,2013-03-23 22:57:00,
2013-03-23 19:02:00,50.8,41.0,29.94,East,98,2.6,5.0,69,0.00,OVC,,0.03,0.0,WeatherDisplay:10.37,2013-03-23 23:02:00,
2013-03-23 19:08:00,50.4,41.0,29.94,East,97,1.0,3.0,70,0.00,OVC,,0.03,0.0,WeatherDisplay:10.37,2013-03-23 23:08:00,
2013-03-23 19:13:00,50.1,40.7,29.94,SE,125,1.7,3.5,70,0.00,OVC,,0.03,0.0,WeatherDisplay:10.37,2013-03-23 23:13:00,
2013-03-23 19:18:00,49.8,40.8,29.94,SSE,155,0.3,1.1,71,0.00,OVC,,0.03,0.0,WeatherDisplay:10.37,2013-03-23 23:18:00,
2013-03-23 19:23:00,49.6,40.6,29.95,SE,136,0.8,3.5,71,0.00,OVC,,0.03,0.0,WeatherDisplay:10.37,2013-03-23 23:23:00,
2013-03-23 19:28:00,49.4,40.7,29.95,SE,136,0.0,0.0,72,0.00,OVC,,0.03,0.0,WeatherDisplay:10.37,2013-03-23 23:28:00,
2013-03-23 19:33:00,49.1,40.8,29.94,SE,136,0.0,0.0,73,0.00,OVC,,0.03,0.0,WeatherDisplay:10.37,2013-03-23 23:33:00,
2013-03-23 19:38:00,48.9,40.6,29.95,SE,136,0.0,0.0,73,0.00,OVC,,0.03,0.0,WeatherDisplay:10.37,2013-03-23 23:38:00,
2013-03-23 19:43:00,48.7,40.8,29.96,SE,139,0.0,0.0,74,0.00,OVC,,0.03,0.0,WeatherDisplay:10.37,2013-03-23 23:43:00,
2013-03-23 19:48:00,48.5,40.9,29.97,SSE,161,0.0,0.0,75,0.00,OVC,,0.03,0.0,WeatherDisplay:10.37,2013-03-23 23:48:00,
2013-03-23 19:53:00,48.3,41.1,29.97,SSE,161,0.0,0.0,76,0.00,OVC,,0.03,0.0,WeatherDisplay:10.37,2013-03-23 23:53:00,
2013-03-23 19:58:00,48.1,40.9,29.97,SSE,161,0.0,0.0,76,0.00,OVC,,0.03,0.0,WeatherDisplay:10.37,2013-03-23 23:58:00,
2013-03-23 20:03:00,48.0,41.1,29.96,SSE,161,0.0,0.0,77,0.00,CLR,OVC,0.03,0.0,WeatherDisplay:10.37,2013-03-24 00:03:00,
2013-03-23 20:08:00,47.7,40.8,29.96,SSE,161,0.0,0.0,77,0.00,CLR,OVC,0.03,0.0,WeatherDisplay:10.37,2013-03-24 00:08:00,
2013-03-23 20:13:00,47.6,41.1,29.97,SSE,161,0.0,0.0,78,0.00,CLR,OVC,0.03,0.0,WeatherDisplay:10.37,2013-03-24 00:13:00,
2013-03-23 20:18:00,47.2,40.7,29.97,SSE,161,0.0,0.0,78,0.00,CLR,OVC,0.03,0.0,WeatherDisplay:10.37,2013-03-24 00:18:00,
2013-03-23 20:23:00,46.9,40.7,29.98,SSE,161,0.0,0.0,79,0.00,CLR,OVC,0.03,0.0,WeatherDisplay:10.37,2013-03-24 00:23:00,
2013-03-23 20:28:00,46.6,40.8,29.98,SSE,161,0.0,0.0,80,0.00,CLR,OVC,0.03,0.0,WeatherDisplay:10.37,2013-03-24 00:28:00,
2013-03-23 20:33:00,46.3,40.5,29.99,SSE,161,0.0,0.0,80,0.00,CLR,OVC,0.03,0.0,WeatherDisplay:10.37,2013-03-24 00:33:00,
2013-03-23 20:38:00,46.0,40.5,29.99,SSE,161,0.0,0.0,81,0.00,CLR,OVC,0.03,0.0,WeatherDisplay:10.37,2013-03-24 00:38:00,
2013-03-23 20:43:00,45.7,40.2,29.99,SSE,161,0.0,0.0,81,0.00,CLR,OVC,0.03,0.0,WeatherDisplay:10.37,2013-03-24 00:43:00,
2013-03-23 20:48:00,45.4,40.2,29.99,SSE,161,0.0,0.0,82,0.00,CLR,OVC,0.03,0.0,WeatherDisplay:10.37,2013-03-24 00:48:00,
2013-03-23 20:53:00,45.1,40.2,29.99,SSE,161,0.0,0.0,83,0.00,CLR,OVC,0.03,0.0,WeatherDisplay:10.37,2013-03-24 00:53:00,
2013-03-23 20:58:00,44.8,40.3,29.99,SSE,161,0.0,0.0,84,0.00,CLR,OVC,0.03,0.0,WeatherDisplay:10.37,2013-03-24 00:58:00,
2013-03-23 21:03:00,44.5,40.3,29.99,SSE,161,0.0,0.0,85,0.00,CLR,OVC,0.03,0.0,WeatherDisplay:10.37,2013-03-24 01:03:00,
2013-03-23 21:08:00,44.3,40.1,30.00,SSE,161,0.0,0.0,85,0.00,CLR,OVC,0.03,0.0,WeatherDisplay:10.37,2013-03-24 01:08:00,
2013-03-23 21:13:00,44.0,40.1,30.00,SSE,161,0.0,0.0,86,0.00,CLR,OVC,0.03,0.0,WeatherDisplay:10.37,2013-03-24 01:13:00,
2013-03-23 21:18:00,43.8,39.9,30.00,SSE,161,0.0,0.0,86,0.00,CLR,OVC,0.03,0.0,WeatherDisplay:10.37,2013-03-24 01:18:00,
2013-03-23 21:23:00,43.6,40.0,30.00,SSE,161,0.0,0.0,87,0.00,CLR,OVC,0.03,0.0,WeatherDisplay:10.37,2013-03-24 01:23:00,
2013-03-23 21:28:00,43.4,39.8,30.00,SSE,161,0.0,0.0,87,0.00,CLR,OVC,0.03,0.0,WeatherDisplay:10.37,2013-03-24 01:28:00,
2013-03-23 21:33:00,43.3,40.0,30.01,SSE,161,0.0,0.0,88,0.00,CLR,OVC,0.03,0.0,WeatherDisplay:10.37,2013-03-24 01:33:00,
2013-03-23 21:38:00,43.2,39.9,30.00,SSE,161,0.0,0.0,88,0.00,CLR,OVC,0.03,0.0,WeatherDisplay:10.37,2013-03-24 01:38:00,
2013-03-23 21:43:00,43.1,39.8,30.00,SSE,161,0.0,0.0,88,0.00,CLR,OVC,0.03,0.0,WeatherDisplay:10.37,2013-03-24 01:43:00,
2013-03-23 21:48:00,42.9,39.6,30.00,SSE,161,0.0,0.0,88,0.00,CLR,OVC,0.03,0.0,WeatherDisplay:10.37,2013-03-24 01:48:00,
2013-03-23 21:53:00,42.8,39.8,30.00,SSE,161,0.0,0.0,89,0.00,CLR,OVC,0.03,0.0,WeatherDisplay:10.37,2013-03-24 01:53:00,
2013-03-23 21:58:00,42.7,39.7,30.00,SSE,161,0.0,0.0,89,0.00,CLR,OVC,0.03,0.0,WeatherDisplay:10.37,2013-03-24 01:58:00,
2013-03-23 22:03:00,42.6,39.6,30.00,SSE,161,0.0,0.0,89,0.00,CLR,OVC,0.03,0.0,WeatherDisplay:10.37,2013-03-24 02:03:00,
2013-03-23 22:08:00,42.6,39.9,30.00,SSE,161,0.0,0.0,90,0.00,CLR,OVC,0.03,0.0,WeatherDisplay:10.37,2013-03-24 02:08:00,
2013-03-23 22:13:00,42.5,39.8,30.00,SSE,161,0.0,0.0,90,0.00,CLR,OVC,0.03,0.0,WeatherDisplay:10.37,2013-03-24 02:13:00,
2013-03-23 22:18:00,42.4,39.7,30.00,SSE,161,0.0,0.0,90,0.00,CLR,OVC,0.03,0.0,WeatherDisplay:10.37,2013-03-24 02:18:00,
2013-03-23 22:23:00,42.3,39.6,29.99,SSE,161,0.0,0.0,90,0.00,CLR,OVC,0.03,0.0,WeatherDisplay:10.37,2013-03-24 02:23:00,
2013-03-23 22:28:00,42.2,39.5,29.99,SSE,161,0.0,0.0,90,0.00,CLR,OVC,0.03,0.0,WeatherDisplay:10.37,2013-03-24 02:28:00,
2013-03-23 22:33:00,42.2,39.8,29.99,SSE,161,0.0,0.0,91,0.00,CLR,OVC,0.03,0.0,WeatherDisplay:10.37,2013-03-24 02:33:00,
2013-03-23 22:38:00,42.1,39.7,29.99,SSE,161,0.0,0.0,91,0.00,CLR,OVC,0.03,0.0,WeatherDisplay:10.37,2013-03-24 02:38:00,
2013-03-23 22:43:00,42.1,39.7,29.98,SSE,161,0.0,0.0,91,0.00,CLR,OVC,0.03,0.0,WeatherDisplay:10.37,2013-03-24 02:43:00,
2013-03-23 22:48:00,42.1,39.7,29.98,SSE,161,0.0,0.0,91,0.00,CLR,OVC,0.03,0.0,WeatherDisplay:10.37,2013-03-24 02:48:00,
2013-03-23 22:53:00,42.1,39.9,29.97,SSE,161,0.0,0.0,92,0.00,CLR,OVC,0.03,0.0,WeatherDisplay:10.37,2013-03-24 02:53:00,
2013-03-23 22:58:00,42.2,40.0,29.97,SSE,161,0.0,0.0,92,0.00,CLR,OVC,0.03,0.0,WeatherDisplay:10.37,2013-03-24 02:58:00,
2013-03-23 23:03:00,42.2,40.0,29.97,SSE,161,0.0,0.0,92,0.00,CLR,OVC,0.03,0.0,WeatherDisplay:10.37,2013-03-24 03:03:00,
2013-03-23 23:08:00,42.3,40.1,29.96,SSE,161,1.2,2.3,92,0.00,CLR,OVC,0.03,0.0,WeatherDisplay:10.37,2013-03-24 03:08:00,
2013-03-23 23:13:00,42.4,40.2,29.96,SSE,161,0.0,0.0,92,0.00,CLR,OVC,0.03,0.0,WeatherDisplay:10.37,2013-03-24 03:13:00,
2013-03-23 23:18:00,42.4,40.2,29.95,SSE,161,0.0,0.0,92,0.00,CLR,OVC,0.03,0.0,WeatherDisplay:10.37,2013-03-24 03:18:00,
2013-03-23 23:23:00,42.4,40.2,29.95,SSE,161,0.1,0.0,92,0.00,CLR,OVC,0.03,0.0,WeatherDisplay:10.37,2013-03-24 03:23:00,
2013-03-23 23:28:00,42.3,39.9,29.95,SSE,161,0.0,0.0,91,0.00,CLR,OVC,0.03,0.0,WeatherDisplay:10.37,2013-03-24 03:28:00,
2013-03-23 23:33:00,42.2,39.8,29.95,SSE,161,0.0,0.0,91,0.00,CLR,OVC,0.03,0.0,WeatherDisplay:10.37,2013-03-24 03:33:00,
2013-03-23 23:38:00,42.1,39.7,29.94,SSE,161,0.7,2.3,91,0.00,CLR,OVC,0.03,0.0,WeatherDisplay:10.37,2013-03-24 03:38:00,
2013-03-23 23:43:00,41.9,39.5,29.94,SSE,161,0.0,1.1,91,0.00,CLR,OVC,0.03,0.0,WeatherDisplay:10.37,2013-03-24 03:43:00,
2013-03-23 23:48:00,41.8,39.4,29.94,SSE,161,0.0,0.0,91,0.00,CLR,OVC,0.03,0.0,WeatherDisplay:10.37,2013-03-24 03:48:00,
2013-03-23 23:53:00,41.7,39.5,29.94,SSE,161,0.0,0.0,92,0.00,CLR,OVC,0.03,0.0,WeatherDisplay:10.37,2013-03-24 03:53:00,
2013-03-23 23:58:00,41.6,39.2,29.94,SSE,161,0.0,0.0,91,0.00,CLR,OVC,0.03,0.0,WeatherDisplay:10.37,2013-03-24 03:58:00,